Weather in Megino-Aldan

Russia / Sakha (Yakutia) Republic     62°41′55″N   134°37′17″E
temp.,
°C
wind,
m/s
gust,
m/s
humid.,
%
clouds,
%
prec.,
mm/h
press.,
hPa
HPBL,
m
15 april, thu
thu1500:00−21w1110062 0.0 10089
03:00−24wnw1110095 0.0 10079
06:00−21nw0010089 0.0 100722
09:00−11n118546 0.0 1006246
12:00−6n128099 0.0 1005676
15:00−4n2270100 0.1 1005870
18:00−6ene238761 0.0 100698
21:00−16se1198100 0.0 100810
16 april, fri
fri1600:00−16ne1199100 0.1 100811
03:00−18ne1110083 0.2 100910
06:00−18ese0010098 0.1 101023
09:00−8ese1190100 0.3 1010265
12:00−3sse0291100 0.3 1009480
15:00−1wsw138299 0.8 1008677
18:00−2sse129033 0.4 100863
21:00−6sse2995100 0.4 1007172
17 april, sat
sat1700:00−4sse41194100 0.0 1004331
03:00−3sse51587100 0.0 1000563
06:00−3s71591100 0.5 998914
09:00−1s61492100 0.9 996920
12:000s61397100 1.0 995852
15:00+1s61397100 1.9 9941037
18:00+1s71490100 0.1 994875
21:00+1sw51297100 1.2 994856
18 april, sun
sun1800:00−2nnw1398100 3.1 99684
03:00−4wsw2796100 4.6 998363
06:00−5wsw51181100 0.1 1002687
09:00−5wsw597099 0.1 10061472
12:00−4wsw5876100 0.2 10081547
15:00−4wsw5778100 0.5 10101194
18:00−5wsw378098 0.3 1013583
21:00−10sw269376 0.3 101692
19 april, mon
mon1900:00−13ssw279462 0.0 1019102
03:00−13ssw389393 0.0 1021140
06:00−13ssw269430 0.0 1023124
09:00−6ssw238197 0.0 1024565
12:00−4sse2269100 0.1 10241033
15:00−3e2265100 0.3 10231004
18:00−4ne2584100 0.1 1022223
21:00−9nne2693100 0.1 1021112